User: anonymous   Login
Location: Nairn
(57.5833°N, 3.8667°W)
Time: 15:40:47
(UTC+00:00)
Language:

Okean 1-7 Rocket - Orbit

View from above orbital plane
View from above orbital plane
View from above satellite
View from above satellite

Ground track
Ground track

The orbit data is extracted from the following two-line orbital elements,

1 23318U 94066B   20296.06346070  .00000074  00000-0  68244-5 0  9997
2 23318  82.5380 114.4651 0023352 190.8486 169.2226 14.78881574403365
Epoch (UTC): 22 October 2020 01:31:23
Eccentricity: 0.0023352
inclination: 82.5380°
perigee height: 616 km
apogee height: 649 km
right ascension of ascending node: 114.4651°
argument of perigee: 190.8486°
revolutions per day: 14.78881574
mean anomaly at epoch: 169.2226°
orbit number at epoch: 40336

The dashed part of the orbit path shows where the satellite is in the earth's shadow,  

DLR